Location: Besigheim
(48.9980°N, 9.1427°E)
Time: 17:20:47
(UTC+00:00)

SL-24 R/B - RUBIN 2 - Pass Details

Date: 19 February 2026
Orbit: 603 x 984 km, 64.6° (Epoch: 8 March)

Event Time Altitude Azimuth Distance (km) Brightness Sun altitude
Exits shadow 02:35:13 11° 25° (NNE) 1,923 6.6 -37.4°
Drops below altitude 10° 02:35:21 11° 26° (NNE) 1,971 6.7 -37.4°
Sets 02:37:52 0° 37° (NE) 2,887 7.8 -37.0°
